Middlebury State AP, Middlebu, VT

5:27 AM EST on November 15, 2019 (GMT -0500)
Middlebury State AP, Middlebu

Weather History for K6B0 - August, 2019

Change the Weather History Date:

Thursday, August 15, 2019

  Actual Average (WUND) Record (WUND)
Temperature  
Mean Temperature 66 °F -  
Max Temperature 77 °F - - (-1)
Min Temperature 54 °F - - (-1)
Growing Degree Days 16 (Base 50)    
Moisture  
Dew Point 56 °F    
Average Humidity 75    
Maximum Humidity 95    
Minimum Humidity 46    
Precipitation  
Precipitation 0.00 in - - ()
Sea Level Pressure  
Sea Level Pressure 30.03 in    
Wind  
Wind Speed 1 mph ()    
Max Wind Speed 6 mph    
Max Gust Speed -    
Visibility 10.0 miles    
Events Rain    
Averages and records for this station are not official NWS values.
T = Trace of Precipitation, MM = Missing Value Source: Averaged Metar Reports

Daily Weather History Graph

Daily Weather History Graph

Search for Another Location

Airport or City:

Astronomy

Aug. 15, 2019 Rise Set
Actual Time 5:56 AM EDT 7:57 PM EDT
Civil Twilight 5:24 AM EDT 8:28 PM EDT
Nautical Twilight 4:46 AM EDT 9:06 PM EDT
Astronomical Twilight 4:03 AM EDT 9:48 PM EDT
Moon 8:24 PM EDT 5:45 AM EDT
Length of Visible Light 15h 03m
Length of Day
14h 00m
Full, 100% of the Moon is Illuminated
Aug 15
Full
Aug 23
Last Quarter
Aug 30
New
Sep 5
First Quarter
Sep 14
Full

Hourly Weather History & Observations

Time (EDT) Temp. Dew Point Humidity Pressure Visibility Wind Dir Wind Speed Gust Speed Precip Events Conditions
12:15 AM 58.1 °F 54.9 °F 89% 30.00 in 10.0 mi Calm Calm - N/A   Overcast
12:16 AM 58.1 °F 54.9 °F 89% 30.00 in 10.0 mi Calm Calm - N/A   Overcast
12:37 AM 58.8 °F 55.0 °F 87% 30.00 in 10.0 mi Calm Calm - N/A   Overcast
12:55 AM 59.0 °F 56.5 °F 91% 30.00 in 10.0 mi Calm Calm - N/A   Overcast
1:15 AM 59.0 °F 54.9 °F 86% 30.01 in 10.0 mi Calm Calm - N/A   Overcast
1:16 AM 59.0 °F 54.9 °F 86% 30.01 in 10.0 mi Calm Calm - N/A   Overcast
1:35 AM 58.6 °F 54.7 °F 87% 30.01 in 10.0 mi Calm Calm - N/A   Mostly Cloudy
1:36 AM 58.6 °F 54.7 °F 87% 30.01 in 10.0 mi Calm Calm - N/A   Mostly Cloudy
1:57 AM 57.7 °F 54.7 °F 90% 30.01 in 10.0 mi Calm Calm - N/A   Scattered Clouds
2:15 AM 57.0 °F 53.6 °F 88% 30.01 in 10.0 mi Calm Calm - N/A   Scattered Clouds
2:35 AM 56.3 °F 53.6 °F 91% 30.01 in 10.0 mi Calm Calm - N/A   Scattered Clouds
2:36 AM 56.3 °F 53.6 °F 91% 30.01 in 10.0 mi Calm Calm - N/A   Scattered Clouds
2:55 AM 56.3 °F 53.8 °F 91% 30.01 in 10.0 mi Calm Calm - N/A   Mostly Cloudy
2:56 AM 56.3 °F 53.6 °F 91% 30.01 in 10.0 mi Calm Calm - N/A   Mostly Cloudy
3:18 AM 56.5 °F 53.4 °F 89% 30.02 in 10.0 mi Calm Calm - N/A   Overcast
3:37 AM 56.5 °F 53.8 °F 91% 30.02 in 10.0 mi Calm Calm - N/A   Mostly Cloudy
3:55 AM 55.6 °F 52.7 °F 90% 30.02 in 10.0 mi Calm Calm - N/A   Mostly Cloudy
3:56 AM 55.6 °F 52.5 °F 89% 30.02 in 10.0 mi Calm Calm - N/A   Mostly Cloudy
4:15 AM 55.4 °F 52.0 °F 88% 30.03 in 10.0 mi Calm Calm - N/A   Scattered Clouds
4:35 AM 54.7 °F 52.3 °F 92% 30.03 in 10.0 mi Calm Calm - N/A   Mostly Cloudy
4:39 AM 54.5 °F 52.2 °F 92% 30.03 in 10.0 mi Calm Calm - N/A   Mostly Cloudy
4:57 AM 55.4 °F 52.9 °F 91% 30.04 in 10.0 mi Calm Calm - N/A   Mostly Cloudy
5:15 AM 55.0 °F 52.7 °F 92% 30.04 in 10.0 mi Calm Calm - N/A   Overcast
5:35 AM 55.4 °F 53.2 °F 92% 30.05 in 10.0 mi Calm Calm - N/A   Overcast
5:36 AM 55.4 °F 53.2 °F 92% 30.05 in 10.0 mi North 3.5 mph - N/A   Mostly Cloudy
5:55 AM 54.5 °F 52.7 °F 94% 30.05 in 10.0 mi Calm Calm - N/A   Mostly Cloudy
5:56 AM 54.5 °F 52.7 °F 94% 30.05 in 10.0 mi Calm Calm - N/A   Scattered Clouds
6:36 AM 54.0 °F 52.5 °F 95% 30.05 in 10.0 mi Calm Calm - N/A   Clear
6:56 AM 54.1 °F 52.7 °F 95% 30.05 in 10.0 mi Calm Calm - N/A   Scattered Clouds
7:15 AM 55.6 °F 53.1 °F 91% 30.05 in 10.0 mi Calm Calm - N/A   Scattered Clouds
7:16 AM 55.8 °F 53.1 °F 91% 30.05 in 10.0 mi Calm Calm - N/A   Scattered Clouds
7:58 AM 59.7 °F 54.5 °F 83% 30.06 in 10.0 mi North 3.5 mph - N/A   Clear
8:16 AM 60.4 °F 55.2 °F 83% 30.07 in 10.0 mi Calm Calm - N/A   Clear
8:35 AM 61.5 °F 54.9 °F 79% 30.07 in 10.0 mi North 3.5 mph - N/A   Clear
8:36 AM 61.5 °F 54.9 °F 79% 30.07 in 10.0 mi North 3.5 mph - N/A   Clear
8:55 AM 62.8 °F 55.4 °F 77% 30.07 in 10.0 mi NNE 3.5 mph - N/A   Clear
8:56 AM 62.6 °F 55.2 °F 77% 30.07 in 10.0 mi NNE 3.5 mph - N/A   Clear
9:18 AM 63.9 °F 55.2 °F 73% 30.07 in 10.0 mi North 3.5 mph - N/A   Scattered Clouds
9:36 AM 64.8 °F 56.3 °F 74% 30.08 in 10.0 mi NE 3.5 mph - N/A   Scattered Clouds
9:56 AM 66.0 °F 56.3 °F 71% 30.08 in 10.0 mi Calm Calm - N/A   Clear
10:15 AM 67.1 °F 56.3 °F 68% 30.08 in 10.0 mi North 4.6 mph - N/A   Clear
10:16 AM 67.1 °F 56.3 °F 68% 30.08 in 10.0 mi NNE 3.5 mph - N/A   Clear
10:35 AM 67.6 °F 55.4 °F 65% 30.08 in 10.0 mi Calm Calm - N/A   Clear
10:39 AM 68.2 °F 55.4 °F 64% 30.08 in 10.0 mi NW 4.6 mph - N/A   Clear
10:58 AM 68.4 °F 55.2 °F 63% 30.08 in 10.0 mi Calm Calm - N/A   Clear
11:16 AM 69.6 °F 57.2 °F 65% 30.07 in 10.0 mi North 3.5 mph - N/A   Clear
11:35 AM 70.9 °F 56.8 °F 61% 30.07 in 10.0 mi NNW 5.8 mph - N/A   Clear
11:55 AM 70.7 °F 56.8 °F 61% 30.06 in 10.0 mi Calm Calm - N/A   Clear
11:56 AM 70.7 °F 56.5 °F 61% 30.06 in 10.0 mi NNW 4.6 mph - N/A   Clear
12:18 PM 71.4 °F 56.7 °F 60% 30.05 in 10.0 mi North 4.6 mph - N/A   Clear
12:36 PM 72.1 °F 56.8 °F 58% 30.05 in 10.0 mi WNW 5.8 mph - N/A   Clear
12:56 PM 72.7 °F 57.0 °F 58% 30.05 in 10.0 mi NNW 5.8 mph - N/A   Clear
1:15 PM 72.9 °F 57.7 °F 59% 30.05 in 10.0 mi NNE 4.6 mph - N/A   Clear
1:16 PM 72.7 °F 57.7 °F 59% 30.05 in 10.0 mi North 4.6 mph - N/A   Clear
1:35 PM 73.2 °F 57.9 °F 59% 30.04 in 10.0 mi North 3.5 mph - N/A   Clear
1:39 PM 73.6 °F 58.5 °F 59% 30.04 in 10.0 mi NNW 5.8 mph - N/A   Clear
1:57 PM 73.9 °F 58.5 °F 58% 30.04 in 10.0 mi North 5.8 mph - N/A   Clear
2:16 PM 73.2 °F 57.6 °F 58% 30.03 in 10.0 mi North 4.6 mph - N/A   Scattered Clouds
2:35 PM 75.0 °F 58.1 °F 56% 30.04 in 10.0 mi West 5.8 mph - N/A   Scattered Clouds
2:36 PM 75.2 °F 57.7 °F 54% 30.04 in 10.0 mi West 4.6 mph - N/A   Scattered Clouds
2:55 PM 74.7 °F 57.9 °F 56% 30.03 in 10.0 mi Calm Calm - N/A   Scattered Clouds
2:56 PM 74.7 °F 58.1 °F 56% 30.03 in 10.0 mi NNW 3.5 mph - N/A   Scattered Clouds
3:18 PM 74.8 °F 58.6 °F 57% 30.02 in 10.0 mi North 3.5 mph - N/A   Scattered Clouds
3:36 PM 74.7 °F 57.9 °F 56% 30.02 in 10.0 mi Calm Calm - N/A   Scattered Clouds
3:55 PM 75.6 °F 58.5 °F 55% 30.02 in 10.0 mi North 3.5 mph - N/A   Scattered Clouds
3:56 PM 75.6 °F 58.5 °F 55% 30.02 in 10.0 mi NNW 3.5 mph - N/A   Scattered Clouds
4:15 PM 75.0 °F 57.4 °F 54% 30.02 in 10.0 mi Calm Calm - N/A   Clear
4:16 PM 75.0 °F 57.2 °F 54% 30.02 in 10.0 mi Calm Calm - N/A   Clear
4:35 PM 75.9 °F 57.2 °F 52% 30.01 in 10.0 mi NE 3.5 mph - N/A   Clear
4:39 PM 75.6 °F 56.5 °F 51% 30.01 in 10.0 mi NNE 3.5 mph - N/A   Clear
4:57 PM 75.6 °F 54.1 °F 47% 30.00 in 10.0 mi Calm Calm - N/A   Clear
5:15 PM 76.8 °F 54.5 °F 46% 29.99 in 10.0 mi Calm Calm - N/A   Clear
5:35 PM 77.2 °F 55.2 °F 47% 29.99 in 10.0 mi West 3.5 mph - N/A   Scattered Clouds
5:55 PM 76.8 °F 55.0 °F 47% 29.99 in 10.0 mi NW 3.5 mph - N/A   Scattered Clouds
6:19 PM 75.7 °F 59.7 °F 57% 29.99 in 10.0 mi Calm Calm - N/A   Clear
6:36 PM 70.9 °F 61.2 °F 71% 29.99 in 10.0 mi Calm Calm - N/A   Scattered Clouds
6:56 PM 70.9 °F 62.6 °F 75% 30.00 in 10.0 mi Calm Calm - N/A   Mostly Cloudy
7:15 PM 69.1 °F 62.8 °F 80% 30.00 in 10.0 mi Calm Calm - N/A   Mostly Cloudy
7:16 PM 68.9 °F 62.8 °F 81% 30.00 in 10.0 mi Calm Calm - N/A   Mostly Cloudy
7:35 PM 66.9 °F 61.5 °F 83% 30.00 in 10.0 mi Calm Calm - N/A   Scattered Clouds
7:39 PM 66.6 °F 61.3 °F 83% 29.99 in 10.0 mi Calm Calm - N/A   Scattered Clouds
7:58 PM 65.5 °F 58.5 °F 78% 29.99 in 10.0 mi Calm Calm - N/A   Clear
8:15 PM 64.6 °F 57.4 °F 77% 30.00 in 10.0 mi Calm Calm - N/A   Clear
8:35 PM 64.4 °F 57.2 °F 77% 30.00 in 10.0 mi Calm Calm - N/A   Clear
8:36 PM 64.4 °F 57.6 °F 78% 30.00 in 10.0 mi Calm Calm - N/A   Clear
8:55 PM 63.9 °F 56.8 °F 78% 30.01 in 10.0 mi Calm Calm - N/A   Scattered Clouds
9:19 PM 64.4 °F 57.7 °F 79% 30.01 in 10.0 mi Calm Calm - N/A   Mostly Cloudy
9:37 PM 63.9 °F 58.1 °F 81% 30.01 in 10.0 mi Calm Calm - N/A   Overcast
9:56 PM 64.8 °F 58.5 °F 80% 30.00 in 10.0 mi Calm Calm - N/A   Overcast
10:15 PM 65.3 °F 58.5 °F 78% 30.01 in 10.0 mi Calm Calm - N/A   Overcast
10:16 PM 65.5 °F 58.6 °F 79% 30.01 in 10.0 mi Calm Calm - N/A   Overcast
10:35 PM 64.8 °F 59.5 °F 83% 30.00 in 10.0 mi Calm Calm - N/A   Mostly Cloudy
10:39 PM 64.6 °F 59.2 °F 83% 30.00 in 10.0 mi Calm Calm - N/A   Mostly Cloudy
10:57 PM 64.4 °F 59.2 °F 83% 30.01 in 10.0 mi Calm Calm - N/A   Scattered Clouds
11:15 PM 64.2 °F 59.0 °F 83% 30.01 in 10.0 mi Calm Calm - N/A   Scattered Clouds
11:35 PM 64.4 °F 59.2 °F 83% 30.01 in 10.0 mi Calm Calm - N/A   Scattered Clouds
11:36 PM 64.4 °F 59.2 °F 83% 30.01 in 10.0 mi Calm Calm - N/A Rain Light Rain
11:55 PM 64.2 °F 59.5 °F 85% 30.02 in 10.0 mi Calm Calm - N/A   Light Drizzle
11:56 PM 64.2 °F 59.5 °F 85% 30.02 in 10.0 mi Calm Calm - N/A   Light Drizzle